Weather History for Aurora, IL

Change the Weather History Date:

Friday, June 14, 2013

  Actual Average Record
Temperature  
Mean Temperature 65 °F 69 °F  
Max Temperature 78 °F 80 °F 93 °F (2001)
Min Temperature 52 °F 58 °F 48 °F (2014)
Degree Days  
Heating Degree Days 0 1  
Month to date heating degree days 43 31  
Since 1 June heating degree days 43 31  
Since 1 July heating degree days 6697 6765  
Cooling Degree Days 0 5  
Month to date cooling degree days 32 55  
Year to date cooling degree days 112 96  
Since 1 June cooling degree days 32 55  
Growing Degree Days 16 (Base 50)    
Moisture  
Dew Point 53 °F    
Average Humidity 67    
Maximum Humidity 89    
Minimum Humidity 45    
Precipitation  
Precipitation 0.00 in 0.14 in 0.41 in (2004)
Month to date precipitation 2.47 2.33  
Year to date precipitation 19.33 15.21  
Sea Level Pressure  
Sea Level Pressure 30.07 in    
Wind  
Wind Speed 7 mph (ENE)    
Max Wind Speed 15 mph    
Max Gust Speed 20 mph    
Visibility 10 miles    
Events      
T = Trace of Precipitation, MM = Missing Value Source: NWS Daily Summary

Daily Weather History Graph

Daily Weather History Graph

Search for Another Location

Airport:

Trip Planner

Search our weather history database for the weather conditions in past years. The results will help you decide how hot, cold, wet, or windy it might be!

Date:

Astronomy

Jun. 14, 2013 Rise Set
Actual Time 5:18 AM CDT 8:30 PM CDT
Civil Twilight 4:44 AM CDT 9:04 PM CDT
Nautical Twilight 4:00 AM CDT 9:48 PM CDT
Astronomical Twilight 3:07 AM CDT 10:41 PM CDT
Moon 10:57 AM CDT (6/14) No Moon Set
Length of Visible Light 16h 20m
Length of Day
15h 11m
Waxing Crescent, 30% of the Moon is Illuminated
Jun 14
Waxing Crescent
Jun 16
First Quarter
Jun 23
Full
Jun 29
Last Quarter
Jul 8
New

Hourly Weather History & Observations

Time (CDT) Temp. Dew Point Humidity Pressure Visibility Wind Dir Wind Speed Gust Speed Precip Events Conditions
12:52 AM 57.9 °F 51.1 °F 78% 30.04 in 10.0 mi NE 12.7 mph - N/A   Clear
1:52 AM 55.9 °F 51.1 °F 84% 30.05 in 10.0 mi NE 11.5 mph - N/A   Clear
2:52 AM 55.0 °F 51.1 °F 86% 30.06 in 10.0 mi NNE 6.9 mph - N/A   Clear
3:52 AM 55.0 °F 50.0 °F 83% 30.07 in 10.0 mi NNE 8.1 mph - N/A   Clear
4:52 AM 53.1 °F 48.9 °F 86% 30.07 in 10.0 mi NNE 4.6 mph - N/A   Clear
5:52 AM 54.0 °F 50.0 °F 86% 30.08 in 10.0 mi NNE 4.6 mph - N/A   Clear
6:52 AM 57.0 °F 51.1 °F 81% 30.09 in 10.0 mi NNE 6.9 mph - N/A   Clear
7:52 AM 60.1 °F 51.1 °F 72% 30.12 in 10.0 mi NNE 4.6 mph - N/A   Scattered Clouds
8:52 AM 63.0 °F 53.1 °F 70% 30.15 in 10.0 mi NE 3.5 mph - N/A   Clear
9:52 AM 66.0 °F 55.9 °F 70% 30.14 in 10.0 mi NNE 4.6 mph - N/A   Clear
10:52 AM 70.0 °F 57.9 °F 65% 30.11 in 10.0 mi East 9.2 mph - N/A   Clear
11:52 AM 72.0 °F 57.0 °F 59% 30.09 in 10.0 mi East 13.8 mph - N/A   Clear
12:52 PM 73.9 °F 57.0 °F 55% 30.12 in 10.0 mi East 8.1 mph - N/A   Partly Cloudy
1:52 PM 75.0 °F 55.9 °F 51% 30.11 in 10.0 mi East 3.5 mph - N/A   Clear
2:52 PM 77.0 °F 57.0 °F 50% 30.09 in 10.0 mi ESE 4.6 mph - N/A   Partly Cloudy
3:52 PM 77.0 °F 55.0 °F 47% 30.06 in 10.0 mi Variable 4.6 mph - N/A   Clear
4:52 PM 78.1 °F 55.0 °F 45% 30.04 in 10.0 mi South 3.5 mph - N/A   Clear
5:52 PM 77.0 °F 55.9 °F 48% 30.02 in 10.0 mi ESE 3.5 mph - N/A   Clear
6:52 PM 73.9 °F 55.9 °F 53% 30.01 in 10.0 mi SE 6.9 mph - N/A   Clear
7:52 PM 71.1 °F 54.0 °F 55% 30.01 in 10.0 mi East 12.7 mph 19.6 mph N/A   Clear
8:52 PM 66.9 °F 52.0 °F 59% 30.04 in 10.0 mi East 8.1 mph - N/A   Clear
9:52 PM 64.0 °F 52.0 °F 65% 30.04 in 10.0 mi East 8.1 mph - N/A   Clear
10:52 PM 61.0 °F 53.1 °F 75% 30.04 in 10.0 mi East 4.6 mph - N/A   Clear
11:52 PM 59.0 °F 51.1 °F 75% 30.02 in 10.0 mi East 6.9 mph - N/A   Clear